Weather History for Hutchinson, MN

Change the Weather History Date:

Tuesday, October 18, 2011

  Actual Average Record
Temperature  
Mean Temperature 42 °F -  
Max Temperature 49 °F 56 °F 79 °F (1965)
Min Temperature 34 °F 34 °F 17 °F (1972)
Degree Days  
Heating Degree Days 24    
Moisture  
Dew Point 32 °F    
Average Humidity 68    
Maximum Humidity 81    
Minimum Humidity 47    
Precipitation  
Precipitation 0.00 in - - ()
Sea Level Pressure  
Sea Level Pressure 30.00 in    
Wind  
Wind Speed 9 mph (NW)    
Max Wind Speed 17 mph    
Max Gust Speed 25 mph    
Visibility 10 miles    
Events      
Averages and records for this station are not official NWS values.
T = Trace of Precipitation, MM = Missing Value Source: NWS Daily Summary

Daily Weather History Graph

Daily Weather History Graph

Search for Another Location

Airport:

Trip Planner

Search our weather history database for the weather conditions in past years. The results will help you decide how hot, cold, wet, or windy it might be!

Date:

Astronomy

Oct. 18, 2011 Rise Set
Actual Time 7:36 AM CDT 6:28 PM CDT
Civil Twilight 7:07 AM CDT 6:57 PM CDT
Nautical Twilight 6:32 AM CDT 7:31 PM CDT
Astronomical Twilight 5:59 AM CDT 8:05 PM CDT
Moon 11:01 PM CDT (10/18) 1:37 PM CDT (10/18)
Length of Visible Light 11h 50m
Length of Day
10h 51m
Waning Gibbous, 64% of the Moon is Illuminated
Oct 18
Waning Gibbous
Oct 19
Last Quarter
Oct 26
New
Nov 2
First Quarter
Nov 10
Full

Hourly Weather History & Observations

Time (CDT) Temp. Windchill Dew Point Humidity Pressure Visibility Wind Dir Wind Speed Gust Speed Precip Events Conditions
12:13 AM 40.6 °F 36.7 °F 31.1 °F 69% 29.91 in 10.0 mi West 5.8 mph - N/A   Clear
12:32 AM 39.4 °F 34.5 °F 31.1 °F 72% 29.91 in 10.0 mi WNW 6.9 mph - N/A   Clear
1:13 AM 39.4 °F 34.5 °F 31.1 °F 72% 29.91 in 10.0 mi West 6.9 mph - N/A   Clear
1:32 AM 39.9 °F 34.5 °F 31.1 °F 71% 29.90 in 10.0 mi WNW 8.1 mph - N/A   Clear
1:53 AM 39.4 °F 33.8 °F 31.6 °F 74% 29.90 in 10.0 mi West 8.1 mph - N/A   Clear
2:13 AM 37.2 °F 33.6 °F 30.6 °F 77% 29.91 in 10.0 mi WNW 4.6 mph - N/A   Clear
2:53 AM 36.9 °F 30.7 °F 31.3 °F 80% 29.90 in 10.0 mi NW 8.1 mph - N/A   Clear
3:33 AM 39.4 °F 32.7 °F 32.5 °F 76% 29.91 in 10.0 mi NW 10.4 mph - N/A   Clear
3:53 AM 39.4 °F 33.8 °F 33.3 °F 79% 29.92 in 10.0 mi NW 8.1 mph - N/A   Clear
4:12 AM 39.4 °F 34.5 °F 33.8 °F 80% 29.92 in 10.0 mi WNW 6.9 mph - N/A   Scattered Clouds
4:33 AM 38.3 °F 32.5 °F 33.1 °F 81% 29.93 in 10.0 mi WNW 8.1 mph - N/A   Mostly Cloudy
4:53 AM 39.4 °F 32.7 °F 33.8 °F 80% 29.93 in 10.0 mi WNW 10.4 mph - N/A   Overcast
5:13 AM 39.4 °F 33.8 °F 33.8 °F 80% 29.94 in 10.0 mi NW 8.1 mph - N/A   Overcast
5:33 AM 40.3 °F 33.9 °F 34.0 °F 78% 29.95 in 10.0 mi NW 10.4 mph 17.3 mph N/A   Overcast
5:53 AM 40.6 °F 34.8 °F 33.8 °F 77% 29.96 in 10.0 mi NW 9.2 mph - N/A   Overcast
6:13 AM 41.0 °F 35.2 °F 33.6 °F 75% 29.97 in 10.0 mi NW 9.2 mph - N/A   Overcast
6:32 AM 40.6 °F 34.3 °F 33.8 °F 77% 29.98 in 10.0 mi WNW 10.4 mph - N/A   Overcast
6:53 AM 40.6 °F 35.4 °F 34.0 °F 77% 29.98 in 10.0 mi WNW 8.1 mph - N/A   Overcast
7:13 AM 40.6 °F 35.4 °F 34.2 °F 78% 29.99 in 10.0 mi WNW 8.1 mph - N/A   Overcast
7:32 AM 40.6 °F 34.8 °F 34.7 °F 79% 29.99 in 10.0 mi WNW 9.2 mph - N/A   Overcast
7:53 AM 41.0 °F 36.4 °F 34.7 °F 78% 29.99 in 10.0 mi WNW 6.9 mph - N/A   Overcast
8:12 AM 41.4 °F 36.8 °F 35.1 °F 78% 30.00 in 10.0 mi NW 6.9 mph - N/A   Overcast
8:33 AM 41.9 °F 34.6 °F 34.2 °F 74% 30.01 in 10.0 mi NW 13.8 mph 19.6 mph N/A   Overcast
8:53 AM 41.9 °F 35.4 °F 34.3 °F 75% 30.01 in 10.0 mi NW 11.5 mph 18.4 mph N/A   Overcast
9:12 AM 41.9 °F 34.6 °F 34.0 °F 73% 30.01 in 10.0 mi NW 13.8 mph 18.4 mph N/A   Overcast
9:33 AM 41.9 °F 35.0 °F 33.3 °F 71% 30.02 in 10.0 mi NW 12.7 mph 20.7 mph N/A   Overcast
9:53 AM 41.9 °F 35.4 °F 33.4 °F 72% 30.02 in 10.0 mi NW 11.5 mph - N/A   Overcast
10:12 AM 41.9 °F 35.4 °F 33.6 °F 72% 30.03 in 10.0 mi NW 11.5 mph 18.4 mph N/A   Overcast
10:33 AM 41.9 °F 34.6 °F 32.9 °F 70% 30.03 in 10.0 mi NW 13.8 mph 20.7 mph N/A   Overcast
10:52 AM 41.9 °F 34.6 °F 32.5 °F 69% 30.03 in 10.0 mi NNW 13.8 mph 24.2 mph N/A   Overcast
11:13 AM 41.9 °F 34.6 °F 32.4 °F 69% 30.04 in 10.0 mi NW 13.8 mph 20.7 mph N/A   Overcast
11:52 AM 42.3 °F 34.4 °F 32.2 °F 67% 30.03 in 10.0 mi NNW 16.1 mph 20.7 mph N/A   Overcast
12:13 PM 42.8 °F 35.4 °F 32.2 °F 66% 30.03 in 10.0 mi NNW 15.0 mph 19.6 mph N/A   Overcast
12:32 PM 42.8 °F 34.8 °F 32.4 °F 67% 30.03 in 10.0 mi NNW 17.3 mph 21.9 mph N/A   Overcast
12:53 PM 43.2 °F 35.3 °F 32.0 °F 65% 30.03 in 10.0 mi NW 17.3 mph 25.3 mph N/A   Overcast
1:12 PM 43.7 °F 36.6 °F 31.8 °F 63% 30.03 in 10.0 mi NNW 15.0 mph 24.2 mph N/A   Overcast
1:33 PM 44.1 °F 37.4 °F 31.8 °F 62% 30.02 in 10.0 mi NNW 13.8 mph - N/A   Overcast
2:13 PM 44.4 °F 37.5 °F 32.0 °F 62% 30.02 in 10.0 mi NNW 15.0 mph 20.7 mph N/A   Overcast
2:32 PM 45.5 °F 38.3 °F 31.8 °F 59% 30.01 in 10.0 mi NW 17.3 mph 25.3 mph N/A   Overcast
2:53 PM 47.8 °F - 32.5 °F 55% 30.01 in 10.0 mi NNW 12.7 mph 23.0 mph N/A   Overcast
3:13 PM 49.5 °F - 32.7 °F 53% 30.01 in 10.0 mi NW 12.7 mph 21.9 mph N/A   Overcast
3:33 PM 46.9 °F - 31.5 °F 55% 30.01 in 10.0 mi North 10.4 mph 21.9 mph N/A   Overcast
3:53 PM 49.5 °F - 32.2 °F 51% 30.01 in 10.0 mi NNW 16.1 mph 20.7 mph N/A   Mostly Cloudy
4:13 PM 49.5 °F - 31.3 °F 50% 30.01 in 10.0 mi NW 15.0 mph 20.7 mph N/A   Scattered Clouds
4:33 PM 49.5 °F - 30.6 °F 48% 30.01 in 10.0 mi NNW 12.7 mph 19.6 mph N/A   Clear
4:52 PM 49.5 °F - 30.2 °F 48% 30.01 in 10.0 mi NNW 13.8 mph 20.7 mph N/A   Clear
5:13 PM 49.5 °F - 30.0 °F 47% 30.01 in 10.0 mi NNW 13.8 mph 21.9 mph N/A   Clear
5:32 PM 49.5 °F - 30.2 °F 48% 30.01 in 10.0 mi NNW 17.3 mph 21.9 mph N/A   Scattered Clouds
5:53 PM 46.9 °F - 28.6 °F 49% 30.02 in 10.0 mi NNW 16.1 mph 20.7 mph N/A   Clear
6:13 PM 44.6 °F 38.1 °F 27.1 °F 50% 30.03 in 10.0 mi NNW 13.8 mph 19.6 mph N/A   Clear
6:33 PM 42.8 °F 37.5 °F 26.6 °F 53% 30.04 in 10.0 mi North 9.2 mph - N/A   Clear
6:52 PM 41.5 °F 38.6 °F 27.3 °F 57% 30.05 in 10.0 mi North 4.6 mph - N/A   Clear
7:13 PM 39.4 °F 37.2 °F 27.3 °F 62% 30.06 in 10.0 mi North 3.5 mph - N/A   Clear
7:32 PM 38.3 °F 35.9 °F 27.5 °F 65% 30.06 in 10.0 mi North 3.5 mph - N/A   Clear
7:53 PM 37.9 °F 34.4 °F 28.6 °F 69% 30.06 in 10.0 mi North 4.6 mph - N/A   Clear
8:13 PM 35.8 °F 30.9 °F 28.2 °F 74% 30.07 in 10.0 mi NNW 5.8 mph - N/A   Clear
8:33 PM 34.3 °F 29.2 °F 27.9 °F 77% 30.07 in 10.0 mi NNW 5.8 mph - N/A   Clear
8:52 PM 36.3 °F 31.6 °F 29.5 °F 76% 30.08 in 10.0 mi North 5.8 mph - N/A   Clear
9:13 PM 36.9 °F 33.1 °F 29.7 °F 75% 30.08 in 10.0 mi North 4.6 mph - N/A   Clear
9:32 PM 35.6 °F 29.9 °F 29.3 °F 78% 30.08 in 10.0 mi NNW 6.9 mph - N/A   Clear
9:53 PM 34.3 °F 28.4 °F 28.4 °F 79% 30.08 in 10.0 mi NNW 6.9 mph - N/A   Clear
10:13 PM 35.6 °F 29.9 °F 29.3 °F 78% 30.08 in 10.0 mi NNW 6.9 mph - N/A   Clear
10:33 PM 34.3 °F 27.7 °F 28.4 °F 79% 30.08 in 10.0 mi NNW 8.1 mph - N/A   Clear
10:53 PM 34.3 °F 28.4 °F 28.4 °F 79% 30.08 in 10.0 mi NNW 6.9 mph - N/A   Clear
11:13 PM 34.3 °F 28.4 °F 28.4 °F 79% 30.08 in 10.0 mi NNW 6.9 mph - N/A   Clear
11:33 PM 34.3 °F 29.2 °F 28.0 °F 78% 30.08 in 10.0 mi NW 5.8 mph - N/A   Clear
11:52 PM 34.3 °F 28.4 °F 29.1 °F 81% 30.08 in 10.0 mi NW 6.9 mph - N/A   Clear